22-09-2022, 00:00:00,    146,    0.0,   10.4,   0.00,   0.00, 1018.9,   76.5, -999.0
22-09-2022, 00:00:10,    146,    0.0,   10.5,   0.00,   0.00, 1018.9,   76.5, -999.0
22-09-2022, 00:00:20,    146,    0.0,   10.5,   0.00,   0.00, 1018.9,   76.5, -999.0
22-09-2022, 00:00:30,    146,    0.0,   10.5,   0.00,   0.00, 1018.9,   76.6, -999.0
22-09-2022, 00:00:40,    146,    0.0,   10.4,   0.00,   0.00, 1018.9,   76.6, -999.0
22-09-2022, 00:00:50,    146,    0.0,   10.5,   0.00,   0.00, 1018.9,   76.5, -999.0
22-09-2022, 00:01:00,    146,    0.0,   10.4,   0.00,   0.00, 1018.9,   76.5, -999.0
22-09-2022, 00:01:10,    146,    0.0,   10.5,   0.00,   0.00, 1018.9,   76.6, -999.0
22-09-2022, 00:01:20,    146,    0.0,   10.4,   0.00,   0.00, 1018.9,   76.5, -999.0
22-09-2022, 00:01:30,    146,    0.0,   10.4,   0.00,   0.00, 1018.8,   76.5, -999.0
22-09-2022, 00:01:39,    146,    0.0,   10.4,   0.00,   0.00, 1018.9,   76.5, -999.0
22-09-2022, 00:01:50,    146,    0.0,   10.5,   0.00,   0.00, 1018.9,   76.6, -999.0
22-09-2022, 00:02:00,    146,    0.0,   10.5,   0.00,   0.00, 1018.9,   76.7, -999.0
22-09-2022, 00:02:09,    146,    0.0,   10.5,   0.00,   0.00, 1018.8,   76.4, -999.0
22-09-2022, 00:02:19,    146,    0.0,   10.4,   0.00,   0.00, 1018.9,   76.5, -999.0
22-09-2022, 00:02:30,    146,    0.0,   10.5,   0.00,   0.00, 1018.8,   76.6, -999.0
22-09-2022, 00:02:39,    146,    0.0,   10.5,   0.00,   0.00, 1018.8,   76.5, -999.0
22-09-2022, 00:02:49,    146,    0.0,   10.6,   0.00,   0.00, 1018.8,   76.4, -999.0
22-09-2022, 00:02:59,    146,    0.0,   10.6,   0.00,   0.00, 1018.8,   76.3, -999.0
22-09-2022, 00:03:09,    146,    0.0,   10.5,   0.00,   0.00, 1018.8,   76.2, -999.0
22-09-2022, 00:03:19,    146,    0.0,   10.5,   0.00,   0.00, 1018.8,   76.3, -999.0
22-09-2022, 00:03:29,    146,    0.0,   10.5,   0.00,   0.00, 1018.8,   76.3, -999.0
22-09-2022, 00:03:39,    147,    0.0,   10.5,   0.00,   0.00, 1018.8,   76.2, -999.0
22-09-2022, 00:03:49,    146,    0.0,   10.6,   0.00,   0.00, 1018.8,   76.4, -999.0
22-09-2022, 00:03:59,    146,    0.0,   10.5,   0.00,   0.00, 1018.8,   76.4, -999.0
22-09-2022, 00:04:09,    146,    0.0,   10.5,   0.00,   0.00, 1018.8,   76.4, -999.0
22-09-2022, 00:04:19,    146,    0.0,   10.5,   0.00,   0.00, 1018.8,   76.3, -999.0
22-09-2022, 00:04:29,    146,    0.0,   10.5,   0.00,   0.00, 1018.8,   76.3, -999.0
22-09-2022, 00:04:39,    146,    0.0,   10.5,   0.00,   0.00, 1018.8,   76.3, -999.0
22-09-2022, 00:04:48,    146,    0.0,   10.6,   0.00,   0.00, 1018.8,   76.3, -999.0
22-09-2022, 00:04:59,    146,    0.0,   10.6,   0.00,   0.00, 1018.8,   76.2, -999.0
22-09-2022, 00:05:09,    146,    0.0,   10.6,   0.00,   0.00, 1018.8,   76.2, -999.0
22-09-2022, 00:05:18,    147,    0.0,   10.6,   0.00,   0.00, 1018.8,   76.1, -999.0
22-09-2022, 00:05:28,    146,    0.0,   10.6,   0.00,   0.00, 1018.9,   76.1, -999.0
22-09-2022, 00:05:39,    146,    0.0,   10.5,   0.00,   0.00, 1018.8,   76.0, -999.0
22-09-2022, 00:05:48,    146,    0.0,   10.5,   0.00,   0.00, 1018.8,   76.1, -999.0
22-09-2022, 00:05:58,    146,    0.0,   10.5,   0.00,   0.00, 1018.8,   76.0, -999.0
22-09-2022, 00:06:09,    146,    0.0,   10.5,   0.00,   0.00, 1018.8,   76.1, -999.0
22-09-2022, 00:06:18,    146,    0.0,   10.4,   0.00,   0.00, 1018.9,   76.0, -999.0
22-09-2022, 00:06:28,    146,    0.0,   10.5,   0.00,   0.00, 1018.9,   76.2, -999.0
22-09-2022, 00:06:38,    147,    0.0,   10.5,   0.00,   0.00, 1018.8,   76.2, -999.0
22-09-2022, 00:06:48,    146,    0.0,   10.4,   0.00,   0.00, 1018.8,   76.3, -999.0
22-09-2022, 00:06:58,    146,    0.0,   10.4,   0.00,   0.00, 1018.9,   76.4, -999.0
22-09-2022, 00:07:08,    146,    0.0,   10.5,   0.00,   0.00, 1018.8,   76.4, -999.0
22-09-2022, 00:07:18,    146,    0.0,   10.5,   0.00,   0.00, 1018.8,   76.5, -999.0
22-09-2022, 00:07:28,    146,    0.0,   10.4,   0.00,   0.00, 1018.8,   76.6, -999.0
22-09-2022, 00:07:38,    147,    0.0,   10.4,   0.00,   0.00, 1018.8,   76.6, -999.0
22-09-2022, 00:07:48,    146,    0.0,   10.4,   0.00,   0.00, 1018.8,   76.6, -999.0
22-09-2022, 00:07:57,    146,    0.0,   10.5,   0.00,   0.00, 1018.9,   76.7, -999.0
22-09-2022, 00:08:08,    146,    0.0,   10.5,   0.00,   0.00, 1018.8,   76.6, -999.0
22-09-2022, 00:08:18,    146,    0.0,   10.5,   0.00,   0.00, 1018.9,   76.5, -999.0
22-09-2022, 00:08:27,    146,    0.0,   10.4,   0.00,   0.00, 1018.8,   76.6, -999.0
22-09-2022, 00:08:38,    146,    0.0,   10.3,   0.00,   0.00, 1018.9,   76.5, -999.0
22-09-2022, 00:08:48,    146,    0.0,   10.4,   0.00,   0.00, 1018.9,   76.4, -999.0
22-09-2022, 00:08:57,    147,    0.0,   10.4,   0.00,   0.00, 1018.8,   76.5, -999.0
22-09-2022, 00:09:07,    146,    0.0,   10.4,   0.00,   0.00, 1018.9,   76.5, -999.0
22-09-2022, 00:09:18,    146,    0.0,   10.3,   0.00,   0.00, 1018.9,   76.5, -999.0
22-09-2022, 00:09:27,    146,    0.0,   10.3,   0.00,   0.00, 1018.8,   76.4, -999.0
22-09-2022, 00:09:37,    146,    0.0,   10.3,   0.00,   0.00, 1018.9,   76.4, -999.0
22-09-2022, 00:09:47,    146,    0.0,   10.3,   0.00,   0.00, 1018.9,   76.4, -999.0
22-09-2022, 00:09:57,    146,    0.0,   10.3,   0.00,   0.00, 1018.9,   76.5, -999.0
22-09-2022, 00:10:07,    146,    0.0,   10.3,   0.00,   0.00, 1018.9,   76.5, -999.0
22-09-2022, 00:10:17,    146,    0.0,   10.3,   0.00,   0.00, 1018.9,   76.4, -999.0
22-09-2022, 00:10:27,    146,    0.0,   10.3,   0.00,   0.00, 1018.8,   76.6, -999.0
22-09-2022, 00:10:37,    146,    0.0,   10.3,   0.00,   0.00, 1018.8,   76.9, -999.0
22-09-2022, 00:10:47,    146,    0.0,   10.2,   0.00,   0.00, 1018.9,   76.9, -999.0
22-09-2022, 00:10:57,    146,    0.0,   10.3,   0.00,   0.00, 1018.8,   77.0, -999.0
22-09-2022, 00:11:06,    146,    0.0,   10.3,   0.00,   0.00, 1018.8,   77.0, -999.0
22-09-2022, 00:11:17,    146,    0.0,   10.2,   0.00,   0.00, 1018.9,   77.0, -999.0
22-09-2022, 00:11:27,    146,    0.0,   10.3,   0.00,   0.00, 1018.9,   77.0, -999.0
22-09-2022, 00:11:36,    146,    0.0,   10.3,   0.00,   0.00, 1018.9,   77.0, -999.0
22-09-2022, 00:11:47,    146,    0.0,   10.3,   0.00,   0.00, 1018.8,   77.1, -999.0
22-09-2022, 00:11:57,    146,    0.0,   10.3,   0.00,   0.00, 1018.8,   77.1, -999.0
22-09-2022, 00:12:06,    146,    0.0,   10.2,   0.00,   0.00, 1018.8,   77.2, -999.0
22-09-2022, 00:12:16,    146,    0.0,   10.3,   0.00,   0.00, 1018.8,   77.1, -999.0
22-09-2022, 00:12:27,    146,    0.0,   10.2,   0.00,   0.00, 1018.8,   77.2, -999.0
22-09-2022, 00:12:36,    146,    0.0,   10.3,   0.00,   0.00, 1018.9,   77.1, -999.0
22-09-2022, 00:12:46,    145,    0.0,   10.2,   0.00,   0.00, 1018.8,   77.1, -999.0
22-09-2022, 00:12:56,    146,    0.0,   10.2,   0.00,   0.00, 1018.9,   77.1, -999.0
22-09-2022, 00:13:06,    146,    0.0,   10.2,   0.00,   0.00, 1018.9,   77.1, -999.0
22-09-2022, 00:13:16,    146,    0.0,   10.2,   0.00,   0.00, 1018.8,   77.4, -999.0
22-09-2022, 00:13:26,    146,    0.0,   10.2,   0.00,   0.00, 1018.8,   77.5, -999.0
22-09-2022, 00:13:36,    146,    0.0,   10.1,   0.00,   0.00, 1018.8,   77.5, -999.0
22-09-2022, 00:13:46,    146,    0.0,   10.2,   0.00,   0.00, 1018.9,   77.5, -999.0
22-09-2022, 00:13:56,    146,    0.0,   10.2,   0.00,   0.00, 1018.9,   77.5, -999.0
22-09-2022, 00:14:06,    146,    0.0,   10.2,   0.00,   0.00, 1018.8,   77.6, -999.0
22-09-2022, 00:14:16,    146,    0.0,   10.2,   0.00,   0.00, 1018.8,   77.6, -999.0
22-09-2022, 00:14:26,    146,    0.0,   10.1,   0.00,   0.00, 1018.8,   77.5, -999.0
22-09-2022, 00:14:36,    146,    0.0,   10.1,   0.00,   0.00, 1018.8,   77.6, -999.0
22-09-2022, 00:14:45,    146,    0.0,   10.1,   0.00,   0.00, 1018.8,   77.5, -999.0
22-09-2022, 00:14:56,    146,    0.0,   10.1,   0.00,   0.00, 1018.8,   77.6, -999.0
22-09-2022, 00:15:06,    147,    0.0,   10.1,   0.00,   0.00, 1018.9,   77.7, -999.0
22-09-2022, 00:15:15,    146,    0.0,   10.0,   0.00,   0.00, 1018.8,   77.9, -999.0
22-09-2022, 00:15:25,    146,    0.0,   10.2,   0.00,   0.00, 1018.8,   77.9, -999.0
22-09-2022, 00:15:36,    146,    0.0,   10.1,   0.00,   0.00, 1018.8,   77.9, -999.0
22-09-2022, 00:15:45,    146,    0.0,   10.2,   0.00,   0.00, 1018.8,   78.0, -999.0
22-09-2022, 00:15:55,    146,    0.0,   10.1,   0.00,   0.00, 1018.8,   78.0, -999.0
22-09-2022, 00:16:05,    146,    0.0,   10.1,   0.00,   0.00, 1018.8,   77.9, -999.0
22-09-2022, 00:16:15,    146,    0.0,   10.1,   0.00,   0.00, 1018.8,   77.9, -999.0
22-09-2022, 00:16:25,    146,    0.0,   10.1,   0.00,   0.00, 1018.8,   77.9, -999.0
22-09-2022, 00:16:35,    146,    0.0,   10.1,   0.00,   0.00, 1018.8,   78.0, -999.0
22-09-2022, 00:16:45,    146,    0.0,   10.1,   0.00,   0.00, 1018.8,   77.9, -999.0
22-09-2022, 00:16:55,    146,    0.0,   10.1,   0.00,   0.00, 1018.8,   78.0, -999.0
22-09-2022, 00:17:05,    146,    0.0,   10.1,   0.00,   0.00, 1018.8,   78.1, -999.0
22-09-2022, 00:17:15,    146,    0.0,   10.1,   0.00,   0.00, 1018.8,   78.2, -999.0
22-09-2022, 00:17:25,    146,    0.0,   10.1,   0.00,   0.00, 1018.8,   78.1, -999.0
22-09-2022, 00:17:35,    146,    0.0,   10.1,   0.00,   0.00, 1018.8,   78.2, -999.0
22-09-2022, 00:17:45,    147,    0.0,   10.1,   0.00,   0.00, 1018.8,   78.2, -999.0
22-09-2022, 00:17:54,    146,    0.0,   10.1,   0.00,   0.00, 1018.8,   78.2, -999.0
22-09-2022, 00:18:05,    146,    0.0,   10.1,   0.00,   0.00, 1018.8,   78.2, -999.0
22-09-2022, 00:18:15,    146,    0.0,   10.1,   0.00,   0.00, 1018.8,   78.2, -999.0
22-09-2022, 00:18:24,    146,    0.0,   10.1,   0.00,   0.00, 1018.8,   78.3, -999.0
22-09-2022, 00:18:34,    146,    0.0,   10.1,   0.00,   0.00, 1018.8,   78.2, -999.0
22-09-2022, 00:18:45,    146,    0.0,   10.1,   0.00,   0.00, 1018.8,   78.3, -999.0
22-09-2022, 00:18:54,    146,    0.0,   10.1,   0.00,   0.00, 1018.8,   78.3, -999.0
22-09-2022, 00:19:04,    147,    0.0,   10.1,   0.00,   0.00, 1018.8,   78.4, -999.0
22-09-2022, 00:19:14,    146,    0.0,   10.1,   0.00,   0.00, 1018.8,   78.3, -999.0
22-09-2022, 00:19:24,    146,    0.0,   10.1,   0.00,   0.00, 1018.8,   78.4, -999.0
22-09-2022, 00:19:34,    146,    0.0,   10.1,   0.00,   0.00, 1018.8,   78.4, -999.0
22-09-2022, 00:19:44,    146,    0.0,   10.1,   0.00,   0.00, 1018.8,   78.4, -999.0
22-09-2022, 00:19:54,    146,    0.0,   10.1,   0.00,   0.00, 1018.8,   78.4, -999.0
22-09-2022, 00:20:04,    146,    0.0,   10.1,   0.00,   0.00, 1018.8,   78.5, -999.0
22-09-2022, 00:20:14,    146,    0.0,   10.1,   0.00,   0.00, 1018.8,   78.4, -999.0
22-09-2022, 00:20:24,    146,    0.0,   10.1,   0.00,   0.00, 1018.8,   78.5, -999.0
22-09-2022, 00:20:34,    146,    0.0,   10.1,   0.00,   0.00, 1018.8,   78.5, -999.0
22-09-2022, 00:20:44,    146,    0.0,   10.2,   0.00,   0.00, 1018.8,   78.4, -999.0
22-09-2022, 00:20:54,    146,    0.0,   10.2,   0.00,   0.00, 1018.8,   78.4, -999.0
22-09-2022, 00:21:03,    146,    0.0,   10.2,   0.00,   0.00, 1018.8,   78.4, -999.0
22-09-2022, 00:21:14,    146,    0.0,   10.1,   0.00,   0.00, 1018.8,   78.4, -999.0
22-09-2022, 00:21:24,    146,    0.0,   10.1,   0.00,   0.00, 1018.8,   78.4, -999.0
22-09-2022, 00:21:33,    146,    0.0,   10.1,   0.00,   0.00, 1018.8,   78.3, -999.0
22-09-2022, 00:21:44,    146,    0.0,   10.1,   0.00,   0.00, 1018.8,   78.4, -999.0
22-09-2022, 00:21:54,    146,    0.0,   10.1,   0.00,   0.00, 1018.8,   78.4, -999.0
22-09-2022, 00:22:03,    146,    0.0,   10.1,   0.00,   0.00, 1018.8,   78.5, -999.0
22-09-2022, 00:22:13,    146,    0.0,   10.1,   0.00,   0.00, 1018.8,   78.3, -999.0
22-09-2022, 00:22:23,    146,    0.0,   10.1,   0.00,   0.00, 1018.8,   78.4, -999.0
22-09-2022, 00:22:33,    147,    0.0,   10.1,   0.00,   0.00, 1018.8,   78.3, -999.0
22-09-2022, 00:22:43,    146,    0.0,   10.1,   0.00,   0.00, 1018.8,   78.4, -999.0
22-09-2022, 00:22:53,    146,    0.0,   10.0,   0.00,   0.00, 1018.8,   78.4, -999.0
22-09-2022, 00:23:03,    146,    0.0,   10.1,   0.00,   0.00, 1018.8,   78.4, -999.0
22-09-2022, 00:23:13,    147,    0.0,   10.1,   0.00,   0.00, 1018.8,   78.4, -999.0
22-09-2022, 00:23:23,    146,    0.0,   10.1,   0.00,   0.00, 1018.8,   78.4, -999.0
22-09-2022, 00:23:33,    146,    0.0,   10.1,   0.00,   0.00, 1018.8,   78.4, -999.0
22-09-2022, 00:23:43,    146,    0.0,   10.1,   0.00,   0.00, 1018.8,   78.6, -999.0
22-09-2022, 00:23:53,    146,    0.0,   10.1,   0.00,   0.00, 1018.8,   78.6, -999.0
22-09-2022, 00:24:03,    146,    0.0,   10.2,   0.00,   0.00, 1018.8,   78.7, -999.0
22-09-2022, 00:24:13,    146,    0.0,   10.1,   0.00,   0.00, 1018.8,   78.6, -999.0
22-09-2022, 00:24:23,    146,    0.0,   10.1,   0.00,   0.00, 1018.8,   78.5, -999.0
22-09-2022, 00:24:33,    146,    0.0,   10.1,   0.00,   0.00, 1018.8,   78.6, -999.0
22-09-2022, 00:24:42,    146,    0.0,   10.1,   0.00,   0.00, 1018.7,   78.6, -999.0
22-09-2022, 00:24:53,    146,    0.0,   10.1,   0.00,   0.00, 1018.7,   78.6, -999.0
22-09-2022, 00:25:03,    146,    0.0,   10.1,   0.00,   0.00, 1018.7,   78.5, -999.0
22-09-2022, 00:25:12,    146,    0.0,   10.1,   0.00,   0.00, 1018.8,   78.6, -999.0
22-09-2022, 00:25:22,    146,    0.0,   10.1,   0.00,   0.00, 1018.8,   78.5, -999.0
22-09-2022, 00:25:32,    146,    0.0,   10.1,   0.00,   0.00, 1018.7,   78.5, -999.0
22-09-2022, 00:25:42,    146,    0.0,   10.1,   0.00,   0.00, 1018.7,   78.5, -999.0
22-09-2022, 00:25:52,    146,    0.0,   10.1,   0.00,   0.00, 1018.8,   78.6, -999.0
22-09-2022, 00:26:02,    147,    0.0,   10.1,   0.00,   0.00, 1018.8,   78.6, -999.0
22-09-2022, 00:26:12,    146,    0.0,   10.0,   0.00,   0.00, 1018.8,   78.7, -999.0
22-09-2022, 00:26:22,    146,    0.0,   10.1,   0.00,   0.00, 1018.7,   78.8, -999.0
22-09-2022, 00:26:32,    147,    0.0,   10.1,   0.00,   0.00, 1018.7,   78.8, -999.0
22-09-2022, 00:26:42,    146,    0.0,   10.1,   0.00,   0.00, 1018.8,   78.6, -999.0
22-09-2022, 00:26:52,    146,    0.0,   10.1,   0.00,   0.00, 1018.7,   78.6, -999.0
22-09-2022, 00:27:02,    146,    0.0,   10.1,   0.00,   0.00, 1018.7,   78.6, -999.0
22-09-2022, 00:27:12,    147,    0.0,   10.1,   0.00,   0.00, 1018.7,   78.8, -999.0
22-09-2022, 00:27:22,    146,    0.0,   10.1,   0.00,   0.00, 1018.7,   78.9, -999.0
22-09-2022, 00:27:32,    146,    0.0,   10.1,   0.00,   0.00, 1018.7,   78.9, -999.0
22-09-2022, 00:27:42,    146,    0.0,   10.1,   0.00,   0.00, 1018.7,   78.9, -999.0
22-09-2022, 00:27:51,    146,    0.0,   10.1,   0.00,   0.00, 1018.7,   79.0, -999.0
22-09-2022, 00:28:02,    146,    0.0,   10.1,   0.00,   0.00, 1018.7,   78.8, -999.0
22-09-2022, 00:28:12,    146,    0.0,   10.1,   0.00,   0.00, 1018.7,   78.8, -999.0
22-09-2022, 00:28:21,    146,    0.0,   10.2,   0.00,   0.00, 1018.7,   78.8, -999.0
22-09-2022, 00:28:31,    146,    0.0,   10.2,   0.00,   0.00, 1018.7,   78.9, -999.0
22-09-2022, 00:28:41,    146,    0.0,   10.1,   0.00,   0.00, 1018.7,   78.7, -999.0
22-09-2022, 00:28:51,    146,    0.0,   10.2,   0.00,   0.00, 1018.7,   78.6, -999.0
22-09-2022, 00:29:01,    146,    0.0,   10.1,   0.00,   0.00, 1018.7,   78.6, -999.0
22-09-2022, 00:29:11,    146,    0.0,   10.2,   0.00,   0.00, 1018.7,   78.6, -999.0
22-09-2022, 00:29:21,    146,    0.0,   10.1,   0.00,   0.00, 1018.7,   78.6, -999.0
22-09-2022, 00:29:31,    146,    0.0,   10.1,   0.00,   0.00, 1018.7,   78.6, -999.0
22-09-2022, 00:29:41,    146,    0.0,   10.1,   0.00,   0.00, 1018.7,   78.6, -999.0
22-09-2022, 00:29:51,    146,    0.0,   10.1,   0.00,   0.00, 1018.7,   78.7, -999.0
22-09-2022, 00:30:01,    146,    0.0,   10.1,   0.00,   0.00, 1018.7,   78.8, -999.0
22-09-2022, 00:30:11,    146,    0.0,   10.1,   0.00,   0.00, 1018.8,   78.8, -999.0
22-09-2022, 00:30:21,    146,    0.0,   10.1,   0.00,   0.00, 1018.8,   78.8, -999.0
22-09-2022, 00:30:31,    146,    0.0,   10.1,   0.00,   0.00, 1018.7,   78.9, -999.0
22-09-2022, 00:30:41,    146,    0.0,   10.1,   0.00,   0.00, 1018.7,   78.9, -999.0
22-09-2022, 00:30:51,    147,    0.0,   10.1,   0.00,   0.00, 1018.7,   78.9, -999.0
22-09-2022, 00:31:00,    146,    0.0,   10.0,   0.00,   0.00, 1018.7,   79.0, -999.0
22-09-2022, 00:31:11,    146,    0.0,   10.0,   0.00,   0.00, 1018.7,   78.8, -999.0
22-09-2022, 00:31:21,    146,    0.0,   10.1,   0.00,   0.00, 1018.7,   78.8, -999.0
22-09-2022, 00:31:30,    146,    0.0,   10.1,   0.00,   0.00, 1018.7,   78.8, -999.0
22-09-2022, 00:31:41,    146,    0.0,   10.0,   0.00,   0.00, 1018.7,   78.9, -999.0
22-09-2022, 00:31:50,    146,    0.0,   10.1,   0.00,   0.00, 1018.7,   78.9, -999.0
22-09-2022, 00:32:00,    146,    0.0,   10.0,   0.00,   0.00, 1018.7,   79.0, -999.0
22-09-2022, 00:32:10,    147,    0.0,   10.0,   0.00,   0.00, 1018.7,   79.1, -999.0
22-09-2022, 00:32:20,    147,    0.0,   10.1,   0.00,   0.00, 1018.7,   79.0, -999.0
22-09-2022, 00:32:30,    146,    0.0,   10.0,   0.00,   0.00, 1018.7,   79.2, -999.0
22-09-2022, 00:32:40,    146,    0.0,   10.1,   0.00,   0.00, 1018.7,   79.1, -999.0
22-09-2022, 00:32:50,    146,    0.0,   10.1,   0.00,   0.00, 1018.7,   79.1, -999.0
22-09-2022, 00:33:00,    146,    0.0,   10.1,   0.00,   0.00, 1018.7,   79.1, -999.0
22-09-2022, 00:33:10,    146,    0.0,   10.0,   0.00,   0.00, 1018.7,   79.1, -999.0
22-09-2022, 00:33:20,    146,    0.0,   10.1,   0.00,   0.00, 1018.7,   79.2, -999.0
22-09-2022, 00:33:30,    146,    0.0,   10.1,   0.00,   0.00, 1018.7,   79.3, -999.0
22-09-2022, 00:33:40,    146,    0.0,   10.1,   0.00,   0.00, 1018.7,   79.2, -999.0
22-09-2022, 00:33:50,    146,    0.0,   10.0,   0.00,   0.00, 1018.7,   79.0, -999.0
22-09-2022, 00:34:00,    146,    0.0,   10.0,   0.00,   0.00, 1018.7,   79.0, -999.0
22-09-2022, 00:34:09,    146,    0.0,   10.0,   0.00,   0.00, 1018.7,   79.0, -999.0
22-09-2022, 00:34:20,    146,    0.0,   10.1,   0.00,   0.00, 1018.7,   79.0, -999.0
22-09-2022, 00:34:30,    146,    0.0,   10.0,   0.00,   0.00, 1018.6,   78.9, -999.0
22-09-2022, 00:34:39,    146,    0.0,   10.0,   0.00,   0.00, 1018.7,   78.8, -999.0
22-09-2022, 00:34:50,    146,    0.0,   10.0,   0.00,   0.00, 1018.7,   78.7, -999.0
22-09-2022, 00:34:59,    146,    0.0,    9.9,   0.00,   0.00, 1018.7,   78.8, -999.0
22-09-2022, 00:35:09,    146,    0.0,   10.0,   0.00,   0.00, 1018.7,   78.9, -999.0
22-09-2022, 00:35:19,    146,    0.0,   10.0,   0.00,   0.00, 1018.7,   79.2, -999.0
22-09-2022, 00:35:29,    146,    0.0,    9.9,   0.00,   0.00, 1018.7,   79.3, -999.0
22-09-2022, 00:35:39,    146,    0.0,    9.9,   0.00,   0.00, 1018.7,   79.3, -999.0
22-09-2022, 00:35:49,    146,    0.0,    9.9,   0.00,   0.00, 1018.7,   79.4, -999.0
22-09-2022, 00:35:59,    146,    0.0,    9.9,   0.00,   0.00, 1018.7,   79.4, -999.0
22-09-2022, 00:36:09,    145,    0.0,    9.9,   0.00,   0.00, 1018.7,   79.4, -999.0
22-09-2022, 00:36:19,    146,    0.0,    9.9,   0.00,   0.00, 1018.7,   79.2, -999.0
22-09-2022, 00:36:29,    146,    0.0,    9.8,   0.00,   0.00, 1018.6,   79.2, -999.0
22-09-2022, 00:36:39,    146,    0.0,    9.8,   0.00,   0.00, 1018.7,   79.3, -999.0
22-09-2022, 00:36:49,    146,    0.0,    9.8,   0.00,   0.00, 1018.7,   79.3, -999.0
22-09-2022, 00:36:59,    146,    0.0,    9.9,   0.00,   0.00, 1018.6,   79.4, -999.0
22-09-2022, 00:37:09,    146,    0.0,    9.8,   0.00,   0.00, 1018.6,   79.4, -999.0
22-09-2022, 00:37:19,    146,    0.0,    9.8,   0.00,   0.00, 1018.6,   79.4, -999.0
22-09-2022, 00:37:29,    146,    0.0,    9.9,   0.00,   0.00, 1018.7,   79.5, -999.0
22-09-2022, 00:37:39,    146,    0.0,    9.8,   0.00,   0.00, 1018.6,   79.5, -999.0
22-09-2022, 00:37:48,    146,    0.0,    9.9,   0.00,   0.00, 1018.6,   79.6, -999.0
22-09-2022, 00:37:59,    146,    0.0,    9.9,   0.00,   0.00, 1018.7,   79.6, -999.0
22-09-2022, 00:38:08,    146,    0.0,    9.9,   0.00,   0.00, 1018.6,   79.6, -999.0
22-09-2022, 00:38:18,    146,    0.0,    9.9,   0.00,   0.00, 1018.6,   79.7, -999.0
22-09-2022, 00:38:28,    146,    0.0,    9.9,   0.00,   0.00, 1018.6,   79.7, -999.0
22-09-2022, 00:38:38,    147,    0.0,    9.9,   0.00,   0.00, 1018.6,   79.7, -999.0
22-09-2022, 00:38:48,    146,    0.0,    9.9,   0.00,   0.00, 1018.6,   79.7, -999.0
22-09-2022, 00:38:58,    146,    0.0,    9.8,   0.00,   0.00, 1018.6,   79.7, -999.0
22-09-2022, 00:39:08,    146,    0.0,    9.9,   0.00,   0.00, 1018.6,   79.7, -999.0
22-09-2022, 00:39:18,    146,    0.0,    9.9,   0.00,   0.00, 1018.6,   79.8, -999.0
22-09-2022, 00:39:28,    146,    0.0,    9.9,   0.00,   0.00, 1018.6,   79.7, -999.0
22-09-2022, 00:39:38,    146,    0.0,    9.9,   0.00,   0.00, 1018.6,   79.6, -999.0
22-09-2022, 00:39:48,    146,    0.0,    9.9,   0.00,   0.00, 1018.6,   79.7, -999.0
22-09-2022, 00:39:58,    147,    0.0,    9.8,   0.00,   0.00, 1018.6,   79.8, -999.0
22-09-2022, 00:40:08,    146,    0.0,    9.9,   0.00,   0.00, 1018.6,   79.8, -999.0
22-09-2022, 00:40:18,    146,    0.0,    9.9,   0.00,   0.00, 1018.6,   79.8, -999.0
22-09-2022, 00:40:28,    146,    0.0,    9.8,   0.00,   0.00, 1018.6,   79.9, -999.0
22-09-2022, 00:40:38,    146,    0.0,    9.8,   0.00,   0.00, 1018.6,   79.9, -999.0
22-09-2022, 00:40:48,    146,    0.0,    9.8,   0.00,   0.00, 1018.6,   79.8, -999.0
22-09-2022, 00:40:57,    146,    0.0,    9.8,   0.00,   0.00, 1018.6,   79.9, -999.0
22-09-2022, 00:41:08,    146,    0.0,    9.8,   0.00,   0.00, 1018.6,   79.9, -999.0
22-09-2022, 00:41:17,    146,    0.0,    9.8,   0.00,   0.00, 1018.6,   79.8, -999.0
22-09-2022, 00:41:27,    146,    0.0,    9.9,   0.00,   0.00, 1018.6,   79.9, -999.0
22-09-2022, 00:41:38,    146,    0.0,    9.8,   0.00,   0.00, 1018.6,   79.9, -999.0
22-09-2022, 00:41:47,    146,    0.0,    9.8,   0.00,   0.00, 1018.6,   80.0, -999.0
22-09-2022, 00:41:57,    146,    0.0,    9.7,   0.00,   0.00, 1018.6,   80.0, -999.0
22-09-2022, 00:42:07,    147,    0.0,    9.8,   0.00,   0.00, 1018.6,   80.0, -999.0
22-09-2022, 00:42:17,    146,    0.0,    9.8,   0.00,   0.00, 1018.6,   80.1, -999.0
22-09-2022, 00:42:27,    147,    0.0,    9.8,   0.00,   0.00, 1018.6,   80.1, -999.0
22-09-2022, 00:42:37,    146,    0.0,    9.8,   0.00,   0.00, 1018.6,   80.0, -999.0
22-09-2022, 00:42:47,    146,    0.0,    9.8,   0.00,   0.00, 1018.6,   80.0, -999.0
22-09-2022, 00:42:57,    146,    0.0,    9.8,   0.00,   0.00, 1018.6,   80.1, -999.0
22-09-2022, 00:43:07,    146,    0.0,    9.8,   0.00,   0.00, 1018.6,   80.1, -999.0
22-09-2022, 00:43:17,    146,    0.0,    9.7,   0.00,   0.00, 1018.6,   80.1, -999.0
22-09-2022, 00:43:27,    146,    0.0,    9.8,   0.00,   0.00, 1018.6,   80.2, -999.0
22-09-2022, 00:43:37,    146,    0.0,    9.8,   0.00,   0.00, 1018.6,   80.2, -999.0
22-09-2022, 00:43:47,    146,    0.0,    9.8,   0.00,   0.00, 1018.6,   80.2, -999.0
22-09-2022, 00:43:56,    146,    0.0,    9.8,   0.00,   0.00, 1018.6,   80.3, -999.0
22-09-2022, 00:44:07,    146,    0.0,    9.7,   0.00,   0.00, 1018.6,   80.2, -999.0
22-09-2022, 00:44:17,    146,    0.0,    9.8,   0.00,   0.00, 1018.6,   80.2, -999.0
22-09-2022, 00:44:26,    146,    0.0,    9.8,   0.00,   0.00, 1018.6,   80.2, -999.0
22-09-2022, 00:44:36,    146,    0.0,    9.8,   0.00,   0.00, 1018.6,   80.2, -999.0
22-09-2022, 00:44:47,    146,    0.0,    9.8,   0.00,   0.00, 1018.6,   80.3, -999.0
22-09-2022, 00:44:56,    146,    0.0,    9.8,   0.00,   0.00, 1018.6,   80.2, -999.0
22-09-2022, 00:45:06,    146,    0.0,    9.8,   0.00,   0.00, 1018.6,   80.3, -999.0
22-09-2022, 00:45:16,    146,    0.0,    9.8,   0.00,   0.00, 1018.6,   80.4, -999.0
22-09-2022, 00:45:26,    146,    0.0,    9.8,   0.00,   0.00, 1018.6,   80.2, -999.0
22-09-2022, 00:45:36,    146,    0.0,    9.8,   0.00,   0.00, 1018.6,   80.4, -999.0
22-09-2022, 00:45:46,    146,    0.0,    9.7,   0.00,   0.00, 1018.6,   80.3, -999.0
22-09-2022, 00:45:56,    146,    0.0,    9.8,   0.00,   0.00, 1018.6,   80.4, -999.0
22-09-2022, 00:46:06,    146,    0.0,    9.8,   0.00,   0.00, 1018.6,   80.5, -999.0
22-09-2022, 00:46:16,    146,    0.0,    9.8,   0.00,   0.00, 1018.5,   80.4, -999.0
22-09-2022, 00:46:26,    146,    0.0,    9.8,   0.00,   0.00, 1018.6,   80.4, -999.0
22-09-2022, 00:46:36,    146,    0.0,    9.8,   0.00,   0.00, 1018.6,   80.4, -999.0